Regional Weather Roundup
Issued by NWS

Home | Current Version | Previous Version | Graphics & Text | Print | Product List | Glossary Off
Versions: 1 2 3 4 5 6 7 8 9 10 11 12 13 14 15 16 17 18 19 20 21 22 23 24 25 26 27 28 29 30 31 32 33 34 35 36 37 38 39 40 41 42 43 44 45 46 47 48 49 50

000
ASUS44 KFWD 272315
RWRTX
NORTH TEXAS HOURLY WEATHER ROUNDUP
NATIONAL WEATHER SERVICE FORT WORTH TX
600 PM CDT WED JUL 27 2016

NOTE: "FAIR" INDICATES FEW OR NO CLOUDS BELOW 12,000 FEET WITH NO
SIGNIFICANT WEATHER AND/OR OBSTRUCTIONS TO VISIBILITY.

TXZ118-119-280000-
DALLAS/FORT WORTH METROPLEX

CITY           SKY/WX    TMP DP  RH WIND       PRES   REMARKS
DFW AIRPORT    PTSUNNY   90  72  55 E8        29.87F HX  97
DALLAS LOVE    CLOUDY    86  74  67 NE3       29.88F HX  94
FTW MEACHAM    CLOUDY    89  71  55 CALM      29.88F HX  95
FTW-ALLIANCE   CLOUDY    84  72  67 NE7       29.89F
FTW-NAS-JRB    CLOUDY    84  74  71 S8        29.89F HX  91
FTW-SPINKS     PTSUNNY   81  72  74 NW9       29.91S
ARLINGTON      CLOUDY    87  71  58 CALM      29.89F HX  93
GRAND PRAIRIE  PTSUNNY   93  66  40 N12       29.91  HX  96
ADDISON        LGT RAIN  82  75  78 CALM      29.89F
MESQUITE       MOSUNNY   88  72  58 N5        29.88F HX  94
LANCASTER      LGT RAIN  87  75  66 CALM      29.89F HX  97
$$

TXZ091>094-102>105-117-120-121-131>134-280000-
NORTH CENTRAL TEXAS

CITY           SKY/WX    TMP DP  RH WIND       PRES   REMARKS
SHRMAN/DENISON CLOUDY    86  72  62 CALM      29.91S HX  92
GAINESVILLE    CLOUDY    79  72  79 S3        29.92S
BOWIE          PTSUNNY   87  71  58 SE6       29.90F HX  92
BRIDGEPORT     CLOUDY    83  72  69 SE3       29.91F
DECATUR        CLOUDY    77  74  92 E3        29.92S
DENTON         LGT RAIN  78  75  90 E5        29.89F
MCKINNEY       PTSUNNY   83  72  69 W3        29.89F
GREENVILLE       N/A     91  64  40 SW5       29.89S HX  93
ROCKWALL       MOSUNNY   87  73  63 NW5       29.88S HX  93
TERRELL        LGT RAIN  85  73  67 N3        29.88F HX  91
WAXAHACHIE     HVY RAIN  82  71  68 NE15      29.92R
CLEBURNE       MOSUNNY   93  70  46 E9        29.90S HX  99
GRANBURY       CLOUDY    88  71  57 NE6       29.90S HX  93
$$

TXZ083>090-098>101-113>116-127>130-139>142-154-155-280000-
WESTERN NORTH TEXAS

CITY           SKY/WX    TMP DP  RH WIND       PRES   REMARKS
WICHITA FALLS  MOSUNNY   96  68  39 SE9       29.87F HX 101
WF-KICKAPOO    SUNNY     98  63  31 SE12      29.88F HX  99
VERNON         SUNNY     99  47  17 CALM      29.88F HX  95
ABILENE        PTSUNNY   93  66  40 SE8       29.93S HX  96
ABILENE-DYESS  MOSUNNY   96  66  38 E10G17    29.91S HX  99
CISCO          TSTM      81  70  69 S14G23    29.97R
BRECKENRIDGE   CLOUDY    89  66  45 S9        29.91R HAZE    HX  91
GRAHAM         MOSUNNY   90  74  60 SE9       29.89S HX  99
MINERAL WELLS  CLOUDY    84  72  67 SE7       29.88F
STEPHENVILLE   CLOUDY    92  66  42 E9        29.93R HX  94
COMANCHE       SUNNY     93  66  40 SE5       29.90F HX  96
BROWNWOOD      LGT RAIN  95  64  36 E8        29.90S HX  97
COLEMAN        PTSUNNY   97  60  29 SE5       29.91S HX  97
$$

TXZ143>147-156>162-174-175-280000-
CENTRAL TEXAS

CITY           SKY/WX    TMP DP  RH WIND       PRES   REMARKS
WACO           CLOUDY    88  73  61 SE24G31   29.90R HX  95
WACO-MCGREGOR  HVY RAIN  80  76  87 E22       29.90S FOG
HILLSBORO      CLOUDY    87  72  61 SE13      29.89S HX  93
CORSICANA      SUNNY     91  73  55 S12       29.90S HX  99
MEXIA          MOSUNNY   83  73  72 S12G20    29.90F
HEARNE         CLOUDY    89  73  57 SE9       29.92S HX  97
CAMERON        CLOUDY    92  72  51 S15       29.89S HX  99
TEMPLE         SUNNY     94  72  48 S15       29.89F HX 102
KILLEEN        MOSUNNY   91  70  50 S13       29.90F HX  96
KILLEEN-SKYLRK SUNNY     92  72  51 S12       29.90F HX  99
FORT HOOD      CLOUDY    92  70  48 S13       29.87F HX  97
GATESVILLE     SUNNY     91  72  52 S7        29.91S HX  98
HAMILTON       MOSUNNY   92  68  44 S15       29.91S HX  96
LAMPASAS       TSTM      78  73  84 SW10      29.96R
$$

TXZ095>097-106>112-122>126-135>138-148>153-164>167-280000-
EAST TEXAS

CITY           SKY/WX    TMP DP  RH WIND       PRES   REMARKS
PARIS          CLOUDY    77  64  65 SE10      29.92F
SULPHUR SPRNGS CLOUDY    79  69  71 NE5       29.92F
MOUNT PLEASANT CLOUDY    76  69  79 E16G30    29.93S
GILMER         PTSUNNY   87  72  61 NE17G23   29.89R THUNDER HX  93
MINEOLA        MOSUNNY   97  70  41 S5        29.87F HX 103
TYLER          SUNNY     93  73  52 S16G26    29.89R HX 102
LONGVIEW       CLOUDY    90  73  57 S17       29.87F HX  98
MARSHALL       CLOUDY    78  72  81 SE3       29.93S
ATHENS         SUNNY     88  72  58 S9G18     29.88S HX  94
PALESTINE      SUNNY     89  75  63 S12G17    29.92S HX  99
JACKSONVILLE   SUNNY     87  73  61 S13       29.94S HX  94
HENDERSON      SUNNY     87  73  62 S9G17     29.91S HX  94
CENTER         MOCLDY    85  74  69 S13       29.94S HX  92
NACOGDOCHES    MOSUNNY  N/A N/A N/A S10       29.91F
LUFKIN         CLOUDY    85  73  67 S13G18    29.93F HX  91
$$

SUPPLEMENTAL OBSERVATIONS (CENTRAL)

CITY           SKY/WX    TMP DP  RH WIND       PRES   REMARKS
DENISON DAM      N/A     86  73  66 S1          N/A  HX  93
CADDO GRASSLND   N/A     90  72  55 NE3         N/A  HX  96
PAT MAYSE LAKE   N/A     84  73  70 E10         N/A  HX  91
GREENVILLE       N/A     93  68  43 NW5         N/A  HX  97
CEDAR HILL       N/A     81  73  78 SE5G18      N/A
ATHENS           N/A     90  73  58 S10G23      N/A  HX  98
LAKE LIMESTONE   N/A     84  75  74 S9          N/A  HX  92
MCGREGOR         N/A     95  70  43 S10         N/A  HX 101
TEMPLE           N/A     93  68  43 S17         N/A  HX  97
$$

SUPPLEMENTAL OBSERVATIONS (WEST)

CITY           SKY/WX    TMP DP  RH WIND       PRES   REMARKS
MILLERS CREEK    N/A     99  64  32 SE6         N/A  HX 101
POSSUM KINGDOM   N/A     88  68  51 SE7G17      N/A  HX  91
LBJ GRASSLAND    N/A     79  73  83 E5          N/A
GRANBURY         N/A     88  72  58 E8G20       N/A  HX  94
COMANCHE         N/A     93  64  38 S7          N/A  HX  95
HAMBY            N/A     93  64  38 SE7         N/A  HX  95
IVIE RESERVOIR   N/A     97  61  30 E8          N/A  HX  97
COLORADO BEND    N/A     75  72  88 W15G24      N/A
$$

SUPPLEMENTAL OBSERVATIONS (EAST)

CITY           SKY/WX    TMP DP  RH WIND       PRES   REMARKS
CLARKSVILLE      N/A     73  72  94 SE6         N/A
TEXARKANA        N/A     79  75  89 S1          N/A
LINDEN           N/A     73  70  88 E5          N/A
GILMER           N/A     82  72  69 SE7G20      N/A
HENDERSON        N/A     88  72  58 S13         N/A  HX  94
LUFKIN           N/A     86  77  74 MISG        N/A  HX  97
N SABINE NF      N/A     88  72  58 MISG        N/A  HX  94
S SABINE NF      N/A     88  72  58 S5          N/A  HX  94
$$

SUPPLEMENTAL OBSERVATIONS ARE A COLLECTION OF AUTOMATED INSTRUMENTS
THAT ARE MAINTAINED BY A VARIETY OF FEDERAL AND STATE AGENCIES.
CERTAIN ELEMENTS...SUCH AS HUMIDITY VALUES AND SUSTAINED WIND
SPEEDS...MAY BE APPROXIMATED.





USA.gov is the U.S. government's official web portal to all federal, state and local government web resources and services.